Regional Weather Roundup
Issued by NWS Midland/Odessa, TX

Skip options and go directly to product.
Home | Oldest Version | Previous Version | Current Version | All | Text Only | Save Text | Print | Product List | Glossary On

Skip product version selection by date and time.   
803
ASUS44 KMAF 012210
RWRMAF
MIDLAND AREA WEATHER ROUNDUP
NATIONAL WEATHER SERVICE MIDLAND TX
500 PM CDT WED APR 01 2015

...IN SOUTHWEST TEXAS AND SOUTHEAST NEW MEXICO...

CITY           SKY/WX    TMP DP  RH WIND       PRES   REMARKS
ALPINE         SUNNY     80  35  19 SW15G21   29.99S
ANDREWS        FAIR      84  39  20 SW8       29.80F
ARTESIA        MOSUNNY   86  30  13 SW21G31   29.79F
BIG SPRING     SUNNY     87  39  18 SW14      29.80F
CARLSBAD       SUNNY     87  31  13 W16G24    29.79
DRYDEN           N/A     88  43  20 S13G21    29.80F
FORT STOCKTON  SUNNY     85  38  18 W8        29.83F
GUAD PASS      MOSUNNY   74  31  20 SW26G39   29.96F
HOBBS          MOSUNNY   82  28  14 W10G17    29.82F
MARFA          MOSUNNY   79  36  21 NW14G22   29.98F
MIDLAND AIRPK  SUNNY     85  40  19 SW9G18    29.81F
MIDLAND INTL   SUNNY     85  42  22 W12G18    29.80F
ODESSA         SUNNY     85  39  19 W10G18    29.82F
PECOS          SUNNY     87  38  18 W14       29.79F
PRESIDIO       FAIR      84  44  24 MISG      29.87F
SEMINOLE       SUNNY     84  33  15 W10G16    29.81F
SNYDER         SUNNY     85  43  22 S14       29.77F
WINK           MOSUNNY   87  33  14 SW13      29.78F
$$
...OTHER STATIONS IN TEXAS...

CITY           SKY/WX    TMP DP  RH WIND       PRES   REMARKS
ABILENE        SUNNY     85  50  29 S14G24    29.78F
AMARILLO       MOSUNNY   87  23   9 W20G28    29.71F
AUSTIN         MOSUNNY   80  64  58 S14       29.86F
BROWNSVILLE    PTSUNNY   80  69  69 SE22G30   29.87F
CORPUS CHRISTI PTSUNNY   79  69  71 S24G32    29.88F
DALLAS FTW     CLOUDY    75  62  64 S13       29.83R
DEL RIO        MOSUNNY   83  62  49 SE15G21   29.80F
EL PASO        MOSUNNY   81  32  17 W13G29    29.89F
HOUSTON INT    LGT RAIN  76  67  73 S9G25     29.90F
LUBBOCK        PTSUNNY   84  31  14 SW21      29.74F
SAN ANGELO     SUNNY     85  48  27 S17G24    29.79F
SAN ANTONIO    MOSUNNY   83  61  47 S10       29.87F
WACO           PTSUNNY   77  64  64 S21       29.83F
WICHITA FALLS  NOT AVBL
$$
...OTHER LOCATIONS IN NEW MEXICO...

CITY           SKY/WX    TMP DP  RH WIND       PRES   REMARKS
ALAMAGORDO     MOSUNNY   81  28  15 NW6       29.88F
ALBUQUERQUE    MOSUNNY   74  23  15 W20G29    29.89F
CANNON AFB     MOSUNNY   82  27  13 W22G32    29.79F
CLOVIS         MOSUNNY   81  28  15 W18G25    29.78F
HOLLOMAN AFB   SUNNY     81  30  15 VRB3      29.85F
ROSWELL        MOSUNNY   85  35  16 S16G25    29.78F
RUIDOSO        MOSUNNY   68  25  19 W17       30.01F
SANTA FE       MOSUNNY   71  19  14 W23G37    29.89F
TRUTH OR CONSE MOSUNNY   79  22  12 W9G25     29.87F
TUCUMCARI      SUNNY     84  21  10 W24G32    29.72F
$$

USA.gov is the U.S. government's official web portal to all federal, state and local government web resources and services.